,,,PA_Meas_PMT16A,,PR_Meas_QMR101_102,,RH_Meas_QMH101,,SR_Meas_QMS101,,TA_Meas_QMH101,,GenWind,,GenWind,
date,time,status,PA,status,PR,status,RH,status,SR,status,TA,status,DirAvg,status,SpdAvg,
2009-04-21, 00:00:04,VALID,1002.66,VALID,0,VALID,85.0849,VALID,0,VALID,26.4277,VALID,296,VALID,1.33281,
2009-04-21, 00:01:04,VALID,1002.6,VALID,0,VALID,85.0773,VALID,0,VALID,26.4277,VALID,317,VALID,0.705078,
2009-04-21, 00:02:04,VALID,1002.6,VALID,0,VALID,84.9857,VALID,0,VALID,26.4492,VALID,290,VALID,1.01172,
2009-04-21, 00:03:04,VALID,1002.54,VALID,0,VALID,85.0544,VALID,0,VALID,26.4082,VALID,331,VALID,0.240625,
2009-04-21, 00:04:04,VALID,1002.53,VALID,0,VALID,85.0544,VALID,0,VALID,26.4297,VALID,289,VALID,0.723047,
2009-04-21, 00:05:04,VALID,1002.52,VALID,0,VALID,84.9094,VALID,0,VALID,26.3887,VALID,289,VALID,0.927734,
2009-04-21, 00:06:04,VALID,1002.5,VALID,0,VALID,84.94,VALID,0,VALID,26.3693,VALID,286,VALID,0.715234,
2009-04-21, 00:07:04,VALID,1002.52,VALID,0,VALID,84.7263,VALID,0,VALID,26.3713,VALID,308,VALID,0.605078,
2009-04-21, 00:08:04,VALID,1002.52,VALID,0,VALID,84.8713,VALID,0,VALID,26.3713,VALID,296,VALID,0.553906,
2009-04-21, 00:09:04,VALID,1002.48,VALID,0,VALID,84.9018,VALID,0,VALID,26.3498,VALID,272,VALID,0.517969,
2009-04-21, 00:10:04,VALID,1002.47,VALID,0,VALID,84.4136,VALID,0,VALID,26.3518,VALID,260,VALID,1.26055,
2009-04-21, 00:11:04,VALID,1002.47,VALID,0,VALID,84.1466,VALID,0,VALID,26.3303,VALID,272,VALID,0.367578,
2009-04-21, 00:12:04,VALID,1002.45,VALID,0,VALID,84.1008,VALID,0,VALID,26.3713,VALID,312,VALID,0.367188,
2009-04-21, 00:13:04,VALID,1002.41,VALID,0,VALID,83.9558,VALID,0,VALID,26.3518,VALID,300,VALID,1.31484,
2009-04-21, 00:14:04,VALID,1002.37,VALID,0,VALID,84.2839,VALID,0,VALID,26.3713,VALID,344,VALID,0.351953,
2009-04-21, 00:15:04,VALID,1002.39,VALID,0,VALID,83.6507,VALID,0,VALID,26.3498,VALID,293,VALID,1.21289,
2009-04-21, 00:16:04,VALID,1002.32,VALID,0,VALID,83.3913,VALID,0,VALID,26.3518,VALID,296,VALID,1.36602,
2009-04-21, 00:17:04,VALID,1002.3,VALID,0,VALID,83.5515,VALID,0.100563,VALID,26.3518,VALID,297,VALID,1.58555,
2009-04-21, 00:18:04,VALID,1002.25,VALID,0,VALID,83.5515,VALID,0,VALID,26.3128,VALID,301,VALID,1.68203,
2009-04-21, 00:19:04,VALID,1002.18,VALID,0,VALID,83.3684,VALID,0,VALID,26.2933,VALID,293,VALID,1.76133,
2009-04-21, 00:20:04,VALID,1002.14,VALID,0,VALID,83.254,VALID,0.100563,VALID,26.2544,VALID,297,VALID,1.78516,
2009-04-21, 00:21:04,VALID,1002.12,VALID,0,VALID,83.3455,VALID,0,VALID,26.2544,VALID,292,VALID,1.88945,
2009-04-21, 00:22:04,VALID,1002.08,VALID,0,VALID,83.2769,VALID,0,VALID,26.2349,VALID,291,VALID,1.19883,
2009-04-21, 00:23:04,VALID,1002.06,VALID,0,VALID,83.5515,VALID,0,VALID,26.1959,VALID,299,VALID,0.683203,
2009-04-21, 00:24:04,VALID,1002.07,VALID,0,VALID,83.788,VALID,0,VALID,26.1959,VALID,304,VALID,0.550391,
2009-04-21, 00:25:04,VALID,1002.06,VALID,0,VALID,83.643,VALID,0,VALID,26.157,VALID,289,VALID,1.12969,
2009-04-21, 00:26:04,VALID,1002.07,VALID,0,VALID,83.2692,VALID,0,VALID,26.116,VALID,286,VALID,2.41914,
2009-04-21, 00:27:04,VALID,1001.98,VALID,0,VALID,82.6131,VALID,0,VALID,26.1375,VALID,292,VALID,3.11797,
2009-04-21, 00:28:04,VALID,1002.06,VALID,0,VALID,82.8191,VALID,0,VALID,26.1355,VALID,298,VALID,1.26719,
2009-04-21, 00:29:04,VALID,1002.06,VALID,0,VALID,82.9946,VALID,0,VALID,26.1375,VALID,322,VALID,1.34531,
2009-04-21, 00:30:04,VALID,1002.03,VALID,0,VALID,82.9183,VALID,0,VALID,26.1375,VALID,306,VALID,1.30391,
2009-04-21, 00:31:04,VALID,1002,VALID,0,VALID,82.6589,VALID,0,VALID,26.0966,VALID,250,VALID,1.48242,
2009-04-21, 00:32:04,VALID,1002.02,VALID,0,VALID,82.5674,VALID,0,VALID,26.0576,VALID,283,VALID,1.40508,
2009-04-21, 00:33:04,VALID,1001.98,VALID,0,VALID,82.0333,VALID,0,VALID,26.0791,VALID,289,VALID,1.77578,
2009-04-21, 00:34:04,VALID,1001.99,VALID,0,VALID,81.9876,VALID,0,VALID,26.0576,VALID,276,VALID,1.16094,
2009-04-21, 00:35:04,VALID,1001.95,VALID,0,VALID,82.1859,VALID,0,VALID,26.0596,VALID,310,VALID,0.791406,
2009-04-21, 00:36:04,VALID,1001.9,VALID,0,VALID,81.8503,VALID,0,VALID,26.0401,VALID,290,VALID,2.53711,
2009-04-21, 00:37:04,VALID,1001.9,VALID,0,VALID,81.8197,VALID,0,VALID,25.9992,VALID,297,VALID,2.17852,
2009-04-21, 00:38:04,VALID,1001.87,VALID,0,VALID,81.4764,VALID,0,VALID,26.0187,VALID,302,VALID,0.995313,
2009-04-21, 00:39:04,VALID,1001.86,VALID,0,VALID,81.5985,VALID,0,VALID,26.0401,VALID,285,VALID,1.47695,
2009-04-21, 00:40:04,VALID,1001.82,VALID,0,VALID,81.5756,VALID,0,VALID,26.0206,VALID,263,VALID,0.604688,
2009-04-21, 00:41:04,VALID,1001.86,VALID,0,VALID,81.5451,VALID,0,VALID,26.0012,VALID,281,VALID,0.719141,
2009-04-21, 00:42:04,VALID,1001.79,VALID,0,VALID,81.7892,VALID,0,VALID,26.0012,VALID,278,VALID,0.628125,
2009-04-21, 00:43:04,VALID,1001.76,VALID,0,VALID,81.423,VALID,0,VALID,25.9817,VALID,314,VALID,0.900391,
2009-04-21, 00:44:04,VALID,1001.72,VALID,0,VALID,81.5451,VALID,0,VALID,25.9622,VALID,284,VALID,0.855469,
2009-04-21, 00:45:04,VALID,1001.7,VALID,0,VALID,81.4612,VALID,0,VALID,25.9447,VALID,274,VALID,1.20898,
2009-04-21, 00:46:04,VALID,1001.69,VALID,0,VALID,81.2476,VALID,0,VALID,25.9232,VALID,284,VALID,1.30508,
2009-04-21, 00:47:04,VALID,1001.65,VALID,0,VALID,81.1026,VALID,0,VALID,25.8823,VALID,287,VALID,2.07969,
2009-04-21, 00:48:04,VALID,1001.67,VALID,0,VALID,81.095,VALID,0,VALID,25.9038,VALID,282,VALID,1.18828,
2009-04-21, 00:49:04,VALID,1001.65,VALID,0,VALID,81.3696,VALID,0,VALID,25.8843,VALID,280,VALID,0.649609,
2009-04-21, 00:50:04,VALID,1001.63,VALID,0,VALID,81.0263,VALID,0,VALID,25.8648,VALID,310,VALID,1.2418,
2009-04-21, 00:51:04,VALID,1001.63,VALID,0,VALID,81.1255,VALID,0,VALID,25.8453,VALID,338,VALID,0.777734,
2009-04-21, 00:52:04,VALID,1001.61,VALID,0,VALID,81.4154,VALID,0,VALID,25.8453,VALID,338,VALID,0.455859,
2009-04-21, 00:53:04,VALID,1001.59,VALID,0,VALID,81.362,VALID,0,VALID,25.8259,VALID,288,VALID,0.540234,
2009-04-21, 00:54:04,VALID,1001.59,VALID,0,VALID,81.7587,VALID,0,VALID,25.8259,VALID,334,VALID,0.307422,
2009-04-21, 00:55:04,VALID,1001.59,VALID,0,VALID,81.8197,VALID,0,VALID,25.7869,VALID,305,VALID,0.492578,
2009-04-21, 00:56:04,VALID,1001.6,VALID,0,VALID,81.6824,VALID,0,VALID,25.7655,VALID,218,VALID,0.264453,
2009-04-21, 00:57:04,VALID,1001.59,VALID,0,VALID,81.2857,VALID,0.100563,VALID,25.746,VALID,303,VALID,1.44375,
2009-04-21, 00:58:04,VALID,1001.58,VALID,0,VALID,81.423,VALID,0,VALID,25.7265,VALID,344,VALID,0.477734,
2009-04-21, 00:59:04,VALID,1001.57,VALID,0,VALID,81.4917,VALID,0.100563,VALID,25.748,VALID,301,VALID,0.655859,
2009-04-21, 01:00:04,VALID,1001.6,VALID,0,VALID,81.7053,VALID,0,VALID,25.7265,VALID,252,VALID,0.428516,
2009-04-21, 01:01:04,VALID,1001.58,VALID,0,VALID,81.5604,VALID,0,VALID,25.7071,VALID,279,VALID,0.875781,
2009-04-21, 01:02:04,VALID,1001.59,VALID,0,VALID,81.774,VALID,0,VALID,25.6876,VALID,322,VALID,0.345313,
2009-04-21, 01:03:04,VALID,1001.55,VALID,0,VALID,81.8503,VALID,0,VALID,25.6681,VALID,287,VALID,0.56875,
2009-04-21, 01:04:04,VALID,1001.55,VALID,0,VALID,82.0562,VALID,0,VALID,25.6486,VALID,307,VALID,0.338281,
2009-04-21, 01:05:04,VALID,1001.53,VALID,0,VALID,82.2317,VALID,0,VALID,25.6292,VALID,305,VALID,0.5,
2009-04-21, 01:06:04,VALID,1001.52,VALID,0,VALID,81.9189,VALID,0,VALID,25.5902,VALID,323,VALID,1.20469,
2009-04-21, 01:07:04,VALID,1001.47,VALID,0,VALID,82.308,VALID,0,VALID,25.6311,VALID,330,VALID,0.423047,
2009-04-21, 01:08:04,VALID,1001.48,VALID,0,VALID,82.369,VALID,0,VALID,25.6097,VALID,291,VALID,0.369922,
2009-04-21, 01:09:04,VALID,1001.43,VALID,0,VALID,82.5903,VALID,0,VALID,25.5921,VALID,290,VALID,0.114063,
2009-04-21, 01:10:04,VALID,1001.42,VALID,0,VALID,82.4758,VALID,0,VALID,25.5707,VALID,337,VALID,0.228125,
2009-04-21, 01:11:04,VALID,1001.43,VALID,0,VALID,82.636,VALID,0,VALID,25.5337,VALID,320,VALID,0.300391,
2009-04-21, 01:12:04,VALID,1001.42,VALID,0,VALID,82.5903,VALID,0,VALID,25.5357,VALID,318,VALID,0.200781,
2009-04-21, 01:13:04,VALID,1001.4,VALID,0,VALID,82.5216,VALID,0,VALID,25.5142,VALID,273,VALID,0.502344,
2009-04-21, 01:14:04,VALID,1001.42,VALID,0,VALID,82.6894,VALID,0,VALID,25.5142,VALID,311,VALID,0.360938,
2009-04-21, 01:15:04,VALID,1001.39,VALID,0,VALID,82.8802,VALID,0,VALID,25.4948,VALID,354,VALID,0.66875,
2009-04-21, 01:16:04,VALID,1001.35,VALID,0,VALID,82.903,VALID,0,VALID,25.4753,VALID,360,VALID,0.741797,
2009-04-21, 01:17:05,VALID,1001.37,VALID,0,VALID,82.9564,VALID,0,VALID,25.4753,VALID,270,VALID,0.278906,
2009-04-21, 01:18:05,VALID,1001.38,VALID,0,VALID,83.0175,VALID,0,VALID,25.4558,VALID,297,VALID,0.698438,
2009-04-21, 01:19:05,VALID,1001.4,VALID,0,VALID,83.0327,VALID,0,VALID,25.4558,VALID,314,VALID,0.0625,
2009-04-21, 01:20:05,VALID,1001.34,VALID,0,VALID,83.0785,VALID,0,VALID,25.4558,VALID,329,VALID,0.263672,
2009-04-21, 01:21:05,VALID,1001.33,VALID,0,VALID,83.1167,VALID,0,VALID,25.4363,VALID,11,VALID,0.630859,
2009-04-21, 01:22:05,VALID,1001.35,VALID,0,VALID,83.0556,VALID,0,VALID,25.4363,VALID,353,VALID,0.827344,
2009-04-21, 01:23:05,VALID,1001.38,VALID,0,VALID,83.048,VALID,0,VALID,25.4169,VALID,351,VALID,0.819531,
2009-04-21, 01:24:05,VALID,1001.39,VALID,0,VALID,83.4371,VALID,0,VALID,25.4169,VALID,331,VALID,0.260547,
2009-04-21, 01:25:05,VALID,1001.39,VALID,0,VALID,83.5744,VALID,0,VALID,25.4169,VALID,353,VALID,0.545703,
2009-04-21, 01:26:05,VALID,1001.41,VALID,0,VALID,83.4447,VALID,0,VALID,25.3974,VALID,346,VALID,0.549609,
2009-04-21, 01:27:05,VALID,1001.42,VALID,0,VALID,83.4447,VALID,0,VALID,25.376,VALID,286,VALID,0.360156,
2009-04-21, 01:28:05,VALID,1001.46,VALID,0,VALID,83.4828,VALID,0,VALID,25.3974,VALID,352,VALID,0.486719,
2009-04-21, 01:29:05,VALID,1001.45,VALID,0,VALID,83.5668,VALID,0,VALID,25.3974,VALID,288,VALID,0.486328,
2009-04-21, 01:30:05,VALID,1001.5,VALID,0,VALID,83.376,VALID,0,VALID,25.3993,VALID,264,VALID,0.916016,
2009-04-21, 01:31:05,VALID,1001.48,VALID,0,VALID,83.5439,VALID,0,VALID,25.3974,VALID,298,VALID,0.769922,
2009-04-21, 01:32:05,VALID,1001.53,VALID,0,VALID,83.4523,VALID,0,VALID,25.4169,VALID,291,VALID,0.618359,
2009-04-21, 01:33:05,VALID,1001.58,VALID,0,VALID,83.4065,VALID,0,VALID,25.4169,VALID,348,VALID,0.725391,
2009-04-21, 01:34:05,VALID,1001.58,VALID,0,VALID,83.4676,VALID,0,VALID,25.4363,VALID,297,VALID,1.02227,
2009-04-21, 01:35:05,VALID,1001.62,VALID,0,VALID,83.5057,VALID,0,VALID,25.4363,VALID,274,VALID,0.461719,
2009-04-21, 01:36:05,VALID,1001.64,VALID,0,VALID,83.3989,VALID,0,VALID,25.4149,VALID,271,VALID,0.79375,
2009-04-21, 01:37:05,VALID,1001.66,VALID,0,VALID,83.2311,VALID,0,VALID,25.4363,VALID,302,VALID,1.28633,
2009-04-21, 01:38:05,VALID,1001.69,VALID,0,VALID,83.254,VALID,0,VALID,25.4363,VALID,283,VALID,1.18711,
2009-04-21, 01:39:05,VALID,1001.72,VALID,0,VALID,83.8185,VALID,0,VALID,25.4363,VALID,302,VALID,0.192578,
2009-04-21, 01:40:05,VALID,1001.76,VALID,0,VALID,83.9024,VALID,0,VALID,25.4363,VALID,301,VALID,0.296094,
2009-04-21, 01:41:05,VALID,1001.82,VALID,0,VALID,83.8872,VALID,0,VALID,25.4363,VALID,265,VALID,0.506641,
2009-04-21, 01:42:05,VALID,1001.82,VALID,0,VALID,84.1466,VALID,0,VALID,25.4169,VALID,262,VALID,0.398438,
2009-04-21, 01:43:05,VALID,1001.86,VALID,0,VALID,83.9787,VALID,0,VALID,25.4169,VALID,302,VALID,0.622656,
2009-04-21, 01:44:05,VALID,1001.88,VALID,0,VALID,83.7956,VALID,0,VALID,25.3974,VALID,295,VALID,1.24766,
2009-04-21, 01:45:05,VALID,1001.89,VALID,0,VALID,84.3144,VALID,0,VALID,25.4169,VALID,271,VALID,0.543359,
2009-04-21, 01:46:05,VALID,1001.91,VALID,0,VALID,83.6888,VALID,0,VALID,25.3955,VALID,297,VALID,1.92617,
2009-04-21, 01:47:05,VALID,1001.9,VALID,0,VALID,83.6964,VALID,0,VALID,25.4363,VALID,286,VALID,1.46016,
2009-04-21, 01:48:05,VALID,1001.91,VALID,0,VALID,83.9329,VALID,0,VALID,25.4558,VALID,289,VALID,1.0207,
2009-04-21, 01:49:05,VALID,1001.91,VALID,0,VALID,83.8414,VALID,0,VALID,25.4344,VALID,324,VALID,0.708984,
2009-04-21, 01:50:05,VALID,1001.91,VALID,0,VALID,83.7117,VALID,0,VALID,25.4753,VALID,277,VALID,0.901953,
2009-04-21, 01:51:05,VALID,1001.88,VALID,0,VALID,84.0092,VALID,0,VALID,25.4539,VALID,290,VALID,0.935156,
2009-04-21, 01:52:05,VALID,1001.83,VALID,0,VALID,84.0474,VALID,0,VALID,25.4753,VALID,317,VALID,0.472656,
2009-04-21, 01:53:05,VALID,1001.81,VALID,0,VALID,84.2076,VALID,0,VALID,25.4753,VALID,273,VALID,0.466016,
2009-04-21, 01:54:05,VALID,1001.79,VALID,0,VALID,84.1008,VALID,0,VALID,25.4344,VALID,294,VALID,1.07891,
2009-04-21, 01:55:05,VALID,1001.75,VALID,0,VALID,84.383,VALID,0,VALID,25.4558,VALID,292,VALID,0.667969,
2009-04-21, 01:56:05,VALID,1001.72,VALID,0,VALID,84.322,VALID,0,VALID,25.4363,VALID,285,VALID,0.907031,
2009-04-21, 01:57:05,VALID,1001.7,VALID,0,VALID,84.5585,VALID,0,VALID,25.4558,VALID,298,VALID,0.551562,
2009-04-21, 01:58:05,VALID,1001.65,VALID,0,VALID,84.6195,VALID,0,VALID,25.4169,VALID,283,VALID,0.627734,
2009-04-21, 01:59:05,VALID,1001.59,VALID,0,VALID,84.8026,VALID,0,VALID,25.4363,VALID,293,VALID,0.1375,
2009-04-21, 02:00:05,VALID,1001.58,VALID,0,VALID,84.9094,VALID,0,VALID,25.4363,VALID,354,VALID,1.10938,
2009-04-21, 02:01:05,VALID,1001.56,VALID,0,VALID,85.0468,VALID,0,VALID,25.4169,VALID,280,VALID,0.808984,
2009-04-21, 02:02:05,VALID,1001.51,VALID,0,VALID,85.1078,VALID,0,VALID,25.4169,VALID,290,VALID,0.528516,
2009-04-21, 02:03:05,VALID,1001.51,VALID,0,VALID,85.2527,VALID,0,VALID,25.3974,VALID,3,VALID,0.319922,
2009-04-21, 02:04:05,VALID,1001.51,VALID,0,VALID,85.2375,VALID,0,VALID,25.3974,VALID,350,VALID,0.523828,
2009-04-21, 02:05:05,VALID,1001.49,VALID,0,VALID,85.5045,VALID,0,VALID,25.3974,VALID,295,VALID,0.544141,
2009-04-21, 02:06:05,VALID,1001.48,VALID,0,VALID,85.3901,VALID,0,VALID,25.3974,VALID,296,VALID,0.549609,
2009-04-21, 02:07:05,VALID,1001.51,VALID,0,VALID,85.6418,VALID,0,VALID,25.4169,VALID,324,VALID,0.516797,
2009-04-21, 02:08:05,VALID,1001.51,VALID,0,VALID,85.7562,VALID,0,VALID,25.3779,VALID,347,VALID,0.353906,
2009-04-21, 02:09:05,VALID,1001.5,VALID,0,VALID,85.6723,VALID,0,VALID,25.3779,VALID,331,VALID,1.19844,
2009-04-21, 02:10:05,VALID,1001.5,VALID,0,VALID,85.9012,VALID,0,VALID,25.3565,VALID,346,VALID,0.753516,
2009-04-21, 02:11:05,VALID,1001.51,VALID,0,VALID,85.9088,VALID,0,VALID,25.337,VALID,301,VALID,0.931641,
2009-04-21, 02:12:05,VALID,1001.5,VALID,0,VALID,85.8859,VALID,0,VALID,25.3565,VALID,294,VALID,1.25312,
2009-04-21, 02:13:05,VALID,1001.54,VALID,0,VALID,85.9927,VALID,0,VALID,25.339,VALID,296,VALID,0.790625,
2009-04-21, 02:14:05,VALID,1001.49,VALID,0,VALID,86.0309,VALID,0,VALID,25.3565,VALID,315,VALID,0.233594,
2009-04-21, 02:15:05,VALID,1001.47,VALID,0,VALID,86.0385,VALID,0,VALID,25.3584,VALID,7,VALID,0.978516,
2009-04-21, 02:16:05,VALID,1001.46,VALID,0,VALID,86.2598,VALID,0,VALID,25.339,VALID,9,VALID,0.902734,
2009-04-21, 02:17:05,VALID,1001.48,VALID,0,VALID,86.3132,VALID,0,VALID,25.3195,VALID,359,VALID,0.983984,
2009-04-21, 02:18:05,VALID,1001.48,VALID,0,VALID,86.3589,VALID,0,VALID,25.2981,VALID,340,VALID,1.01367,
2009-04-21, 02:19:05,VALID,1001.45,VALID,0,VALID,86.5191,VALID,0,VALID,25.3,VALID,348,VALID,0.543359,
2009-04-21, 02:20:05,VALID,1001.43,VALID,0,VALID,86.2903,VALID,0,VALID,25.2806,VALID,267,VALID,0.758594,
2009-04-21, 02:21:05,VALID,1001.39,VALID,0,VALID,86.3666,VALID,0,VALID,25.2806,VALID,4,VALID,0.403125,
2009-04-21, 02:22:05,VALID,1001.39,VALID,0,VALID,86.5573,VALID,0,VALID,25.2592,VALID,312,VALID,0.611719,
2009-04-21, 02:23:05,VALID,1001.38,VALID,0,VALID,85.9088,VALID,0,VALID,25.2416,VALID,304,VALID,1.15898,
2009-04-21, 02:24:05,VALID,1001.36,VALID,0,VALID,85.6494,VALID,0,VALID,25.2611,VALID,354,VALID,0.859375,
2009-04-21, 02:25:05,VALID,1001.37,VALID,0,VALID,85.535,VALID,0,VALID,25.2806,VALID,297,VALID,0.832422,
2009-04-21, 02:26:05,VALID,1001.34,VALID,0,VALID,85.1765,VALID,0,VALID,25.2592,VALID,306,VALID,0.910937,
2009-04-21, 02:27:05,VALID,1001.32,VALID,0,VALID,85.3977,VALID,0,VALID,25.2786,VALID,320,VALID,0.599219,
2009-04-21, 02:28:05,VALID,1001.31,VALID,0,VALID,85.3214,VALID,0,VALID,25.3195,VALID,279,VALID,0.679688,
2009-04-21, 02:29:05,VALID,1001.32,VALID,0,VALID,85.2985,VALID,0,VALID,25.2786,VALID,333,VALID,0.728516,
2009-04-21, 02:30:05,VALID,1001.29,VALID,0,VALID,85.2375,VALID,0,VALID,25.2592,VALID,302,VALID,0.930078,
2009-04-21, 02:31:05,VALID,1001.28,VALID,0,VALID,85.3367,VALID,0,VALID,25.2806,VALID,344,VALID,0.268359,
2009-04-21, 02:32:05,VALID,1001.27,VALID,0,VALID,84.9857,VALID,0,VALID,25.2611,VALID,300,VALID,1.71484,
2009-04-21, 02:33:05,VALID,1001.29,VALID,0,VALID,85.1765,VALID,0,VALID,25.2416,VALID,5,VALID,1.33945,
2009-04-21, 02:34:05,VALID,1001.24,VALID,0,VALID,85.1307,VALID,0,VALID,25.2221,VALID,28,VALID,1.15703,
2009-04-21, 02:35:05,VALID,1001.26,VALID,0,VALID,85.2375,VALID,0,VALID,25.2221,VALID,356,VALID,0.629687,
2009-04-21, 02:36:05,VALID,1001.23,VALID,0,VALID,85.2222,VALID,0,VALID,25.1813,VALID,308,VALID,1.08242,
2009-04-21, 02:37:05,VALID,1001.2,VALID,0,VALID,84.9247,VALID,0,VALID,25.2027,VALID,269,VALID,0.822266,
2009-04-21, 02:38:05,VALID,1001.23,VALID,0,VALID,84.8942,VALID,0,VALID,25.1813,VALID,298,VALID,0.933594,
2009-04-21, 02:39:05,VALID,1001.19,VALID,0,VALID,84.322,VALID,0,VALID,25.1813,VALID,329,VALID,0.716406,
2009-04-21, 02:40:05,VALID,1001.18,VALID,0,VALID,83.7193,VALID,0,VALID,25.2027,VALID,284,VALID,2.13398,
2009-04-21, 02:41:05,VALID,1001.18,VALID,0,VALID,83.1853,VALID,0,VALID,25.2202,VALID,281,VALID,1.84141,
2009-04-21, 02:42:05,VALID,1001.16,VALID,0,VALID,82.8649,VALID,0,VALID,25.2397,VALID,340,VALID,1.98828,
2009-04-21, 02:43:05,VALID,1001.22,VALID,0,VALID,82.7505,VALID,0,VALID,25.2592,VALID,295,VALID,1.13242,
2009-04-21, 02:44:05,VALID,1001.17,VALID,0,VALID,82.4987,VALID,0,VALID,25.2806,VALID,282,VALID,1.83164,
2009-04-21, 02:45:05,VALID,1001.17,VALID,0,VALID,82.7123,VALID,0,VALID,25.2592,VALID,299,VALID,1.09609,
2009-04-21, 02:46:05,VALID,1001.18,VALID,0,VALID,82.4835,VALID,0,VALID,25.3,VALID,298,VALID,1.33047,
2009-04-21, 02:47:05,VALID,1001.16,VALID,0,VALID,82.6208,VALID,0,VALID,25.2806,VALID,304,VALID,1.3375,
2009-04-21, 02:48:05,VALID,1001.16,VALID,0,VALID,82.9641,VALID,0,VALID,25.2592,VALID,42,VALID,0.599609,
2009-04-21, 02:49:05,VALID,1001.19,VALID,0,VALID,82.987,VALID,0,VALID,25.2202,VALID,299,VALID,1.27188,
2009-04-21, 02:50:05,VALID,1001.17,VALID,0,VALID,83.3303,VALID,0,VALID,25.2027,VALID,5,VALID,0.336328,
2009-04-21, 02:51:05,VALID,1001.15,VALID,0,VALID,83.4905,VALID,0,VALID,25.1832,VALID,291,VALID,0.687891,
2009-04-21, 02:52:05,VALID,1001.17,VALID,0,VALID,83.7346,VALID,0,VALID,25.1423,VALID,306,VALID,0.572266,
2009-04-21, 02:53:05,VALID,1001.18,VALID,0,VALID,83.8414,VALID,0,VALID,25.1229,VALID,339,VALID,1.53594,
2009-04-21, 02:54:05,VALID,1001.19,VALID,0,VALID,84.0855,VALID,0,VALID,25.0858,VALID,274,VALID,0.442578,
2009-04-21, 02:55:05,VALID,1001.16,VALID,0,VALID,84.2839,VALID,0,VALID,25.0858,VALID,295,VALID,0.770703,
2009-04-21, 02:56:05,VALID,1001.13,VALID,0,VALID,84.4593,VALID,0,VALID,25.0469,VALID,340,VALID,0.941406,
2009-04-21, 02:57:05,VALID,1001.18,VALID,0,VALID,84.6119,VALID,0,VALID,24.9866,VALID,263,VALID,0.548828,
2009-04-21, 02:58:05,VALID,1001.14,VALID,0,VALID,84.5127,VALID,0,VALID,24.9671,VALID,286,VALID,1.34609,
2009-04-21, 02:59:05,VALID,1001.13,VALID,0,VALID,84.5356,VALID,0,VALID,24.9282,VALID,357,VALID,1.65508,
2009-04-21, 03:00:05,VALID,1001.12,VALID,0,VALID,84.6348,VALID,0,VALID,24.9106,VALID,305,VALID,0.908203,
2009-04-21, 03:01:05,VALID,1001.15,VALID,0,VALID,84.8103,VALID,0,VALID,24.8716,VALID,293,VALID,1.58164,
2009-04-21, 03:02:05,VALID,1001.11,VALID,0,VALID,84.9476,VALID,0,VALID,24.8522,VALID,348,VALID,0.696875,
2009-04-21, 03:03:05,VALID,1001.11,VALID,0,VALID,85.0925,VALID,0,VALID,24.7919,VALID,357,VALID,1.23594,
2009-04-21, 03:04:05,VALID,1001.13,VALID,0,VALID,85.1688,VALID,0,VALID,24.7529,VALID,309,VALID,1.76133,
2009-04-21, 03:05:05,VALID,1001.14,VALID,0,VALID,85.268,VALID,0,VALID,24.7548,VALID,3,VALID,0.983984,
2009-04-21, 03:06:05,VALID,1001.1,VALID,0,VALID,85.1383,VALID,0,VALID,24.6926,VALID,357,VALID,1.49219,
2009-04-21, 03:07:05,VALID,1001.08,VALID,0,VALID,85.1459,VALID,0,VALID,24.675,VALID,300,VALID,1.39102,
2009-04-21, 03:08:05,VALID,1001.1,VALID,0,VALID,84.94,VALID,0,VALID,24.6574,VALID,309,VALID,1.66953,
2009-04-21, 03:09:05,VALID,1001.11,VALID,0,VALID,84.6882,VALID,0,VALID,24.6166,VALID,306,VALID,1.05391,
2009-04-21, 03:10:05,VALID,1001.1,VALID,0,VALID,84.2457,VALID,0,VALID,24.638,VALID,352,VALID,1.40742,
2009-04-21, 03:11:05,VALID,1001.12,VALID,0,VALID,84.4746,VALID,0,VALID,24.5972,VALID,232,VALID,0.627734,
2009-04-21, 03:12:05,VALID,1001.08,VALID,0,VALID,84.2991,VALID,0,VALID,24.5972,VALID,299,VALID,1.18672,
2009-04-21, 03:13:05,VALID,1001.07,VALID,0,VALID,83.9177,VALID,0,VALID,24.5777,VALID,335,VALID,1.01367,
2009-04-21, 03:14:05,VALID,1001.07,VALID,0,VALID,83.7956,VALID,0,VALID,24.5796,VALID,342,VALID,0.876953,
2009-04-21, 03:15:05,VALID,1001.09,VALID,0,VALID,83.46,VALID,0,VALID,24.5796,VALID,325,VALID,1.03945,
2009-04-21, 03:16:05,VALID,1001.03,VALID,0,VALID,83.048,VALID,0,VALID,24.5796,VALID,350,VALID,1.7918,
2009-04-21, 03:17:05,VALID,1001.04,VALID,0,VALID,83.1472,VALID,0,VALID,24.5582,VALID,296,VALID,2.9418,
2009-04-21, 03:18:05,VALID,1001.01,VALID,0,VALID,83.5744,VALID,0,VALID,24.5601,VALID,345,VALID,1.58281,
2009-04-21, 03:19:05,VALID,1001.02,VALID,0,VALID,83.5362,VALID,0,VALID,24.5601,VALID,310,VALID,0.664844,
2009-04-21, 03:20:05,VALID,1000.99,VALID,0,VALID,83.6964,VALID,0,VALID,24.5193,VALID,12,VALID,0.821875,
2009-04-21, 03:21:05,VALID,1000.97,VALID,0,VALID,83.9635,VALID,0,VALID,24.5017,VALID,249,VALID,0.894531,
2009-04-21, 03:22:05,VALID,1000.98,VALID,0,VALID,83.8109,VALID,0,VALID,24.4609,VALID,329,VALID,2.68555,
2009-04-21, 03:23:05,VALID,1000.92,VALID,0,VALID,83.8414,VALID,0,VALID,24.422,VALID,310,VALID,1.79258,
2009-04-21, 03:24:05,VALID,1000.89,VALID,0,VALID,84.1084,VALID,0,VALID,24.422,VALID,302,VALID,0.830469,
2009-04-21, 03:25:05,VALID,1000.84,VALID,0,VALID,84.116,VALID,0,VALID,24.383,VALID,277,VALID,1.99961,
2009-04-21, 03:26:05,VALID,1000.84,VALID,0,VALID,83.9558,VALID,0,VALID,24.3849,VALID,267,VALID,1.24258,
2009-04-21, 03:27:05,VALID,1000.86,VALID,0,VALID,83.8719,VALID,0,VALID,24.3441,VALID,296,VALID,2.86914,
2009-04-21, 03:28:05,VALID,1000.82,VALID,0,VALID,84.5204,VALID,0,VALID,24.3246,VALID,348,VALID,1.81641,
2009-04-21, 03:29:05,VALID,1000.81,VALID,0,VALID,84.7645,VALID,0,VALID,24.2857,VALID,312,VALID,1.51992,
2009-04-21, 03:30:05,VALID,1000.8,VALID,0,VALID,84.8255,VALID,0,VALID,24.2255,VALID,313,VALID,2.08906,
2009-04-21, 03:31:05,VALID,1000.82,VALID,0,VALID,85.1612,VALID,0,VALID,24.2078,VALID,352,VALID,1.78281,
2009-04-21, 03:32:05,VALID,1000.82,VALID,0,VALID,85.6723,VALID,0,VALID,24.1689,VALID,317,VALID,1.46289,
2009-04-21, 03:33:05,VALID,1000.77,VALID,0,VALID,85.5198,VALID,0,VALID,24.1105,VALID,292,VALID,2.73828,
2009-04-21, 03:34:05,VALID,1000.77,VALID,0,VALID,86.214,VALID,0,VALID,24.091,VALID,301,VALID,1.64258,
2009-04-21, 03:35:05,VALID,1000.74,VALID,0,VALID,86.0767,VALID,0,VALID,24.0521,VALID,299,VALID,1.48555,
2009-04-21, 03:36:05,VALID,1000.78,VALID,0,VALID,86.1682,VALID,0,VALID,24.0132,VALID,335,VALID,1.51094,
2009-04-21, 03:37:05,VALID,1000.75,VALID,0,VALID,86.3589,VALID,0,VALID,24.0345,VALID,69,VALID,0.691016,
2009-04-21, 03:38:05,VALID,1000.74,VALID,0,VALID,86.3437,VALID,0,VALID,23.9742,VALID,351,VALID,2.04141,
2009-04-21, 03:39:05,VALID,1000.79,VALID,0,VALID,86.6793,VALID,0.100563,VALID,23.9742,VALID,280,VALID,1.04648,
2009-04-21, 03:40:05,VALID,1000.71,VALID,0,VALID,86.5191,VALID,0,VALID,23.9159,VALID,279,VALID,1.86563,
2009-04-21, 03:41:05,VALID,1000.78,VALID,0,VALID,86.481,VALID,0,VALID,23.9353,VALID,327,VALID,0.623438,
2009-04-21, 03:42:05,VALID,1000.79,VALID,0,VALID,86.7709,VALID,0.100563,VALID,23.9566,VALID,296,VALID,1.11797,
2009-04-21, 03:43:05,VALID,1000.78,VALID,0,VALID,86.8472,VALID,0,VALID,23.9159,VALID,4,VALID,0.904297,
2009-04-21, 03:44:05,VALID,1000.79,VALID,0,VALID,86.7251,VALID,0,VALID,23.8751,VALID,335,VALID,1.02813,
2009-04-21, 03:45:05,VALID,1000.83,VALID,0,VALID,86.8472,VALID,0,VALID,23.8964,VALID,271,VALID,0.832031,